Probability
0 0 0 0 1 2 2 2 2 3 4 5 5 7 7 5 2 1 0 0 0 0 0 0 0 0 0 0 0 0 0 0 0 0 0 0 0 0
0 0 0 0 1 1 1 1 1 3 4 4 5 6 6 4 1 0 0 0 0 0 0 0 0 0 0 0 0 0 0 0 0 0 0 0 0 0
0 0 0 0 0 0 0 0 1 3 4 5 6 6 5 2 0 0 0 0 0 0 0 0 0 0 0 0 0 0 0 0 0 0 0 0 0 0
0 0 0 0 0 0 0 0 1 3 4 6 6 5 4 2 1 0 0 0 0 0 0 0 0 0 0 0 0 0 0 0 0 0 0 0 0 0
0 0 0 0 0 0 0 0 1 2 4 6 6 4 3 2 1 0 0 0 0 0 0 0 0 0 0 0 0 0 0 0 0 0 0 0 0 0
0 0 0 0 0 0 0 0 0 1 3 6 5 3 1 1 0 0 0 0 0 0 0 0 0 0 0 0 0 0 0 0 0 0 0 0 0 0
0 0 0 0 0 0 0 0 0 0 2 5 5 2 0 0 0 0 0 0 0 0 0 0 0 0 0 0 0 0 0 0 0 0 0 0 0 0
0 0 0 0 0 0 0 0 0 0 1 4 3 1 0 0 0 0 0 0 0 0 0 0 0 0 0 0 0 0 0 0 0 0 0 0 0 0
0 0 0 0 0 0 0 0 0 0 1 2 1 0 0 0 0 0 0 0 0 0 0 0 0 0 0 0 0 0 0 0 0 0 0 0 0 0
0 0 0 0 0 0 0 0 0 0 0 0 0 0 0 0 0 0 0 0 0 0 0 0 0 0 0 0 0 0 0 0 0 0 0 0 0 0
0 0 0 0 0 0 0 0 0 0 0 0 0 0 0 0 0 0 0 0 0 0 0 0 0 0 0 0 0 0 0 0 0 0 0 0 0 0
0 0 0 0 0 0 0 0 0 0 0 0 0 0 0 0 0 0 0 0 0 0 0 0 0 0 0 0 0 0 0 0 0 0 0 0 0 0
0 0 0 0 0 0 0 0 0 0 0 0 0 0 0 0 0 0 0 0 0 0 0 0 0 0 0 0 0 0 0 0 0 0 0 0 0 0
0 0 0 0 0 0 0 0 0 0 0 0 0 0 0 0 0 0 0 0 0 0 0 0 0 0 0 0 0 0 0 0 0 0 0 0 0 0
0 0 0 0 0 0 0 0 0 0 0 0 0 0 0 0 0 0 0 0 0 0 0 0 0 0 0 0 0 0 0 0 0 0 0 0 0 0
0 0 0 0 0 0 0 0 0 0 0 0 0 0 0 0 0 0 0 0 0 0 0 0 0 0 0 0 0 0 0 0 0 0 0 0 0 0
0 0 0 0 0 0 0 0 0 0 0 0 0 0 0 0 0 0 0 0 0 0 0 0 0 0 0 0 0 0 0 0 0 0 0 0 0 0
0 0 0 0 0 0 0 0 0 0 0 0 0 0 0 0 0 0 0 0 0 0 0 0 0 0 0 0 0 0 0 0 0 0 0 0 0 0
0 0 0 0 0 0 0 0 0 0 0 0 0 0 0 0 0 0 0 0 0 0 0 0 0 0 0 0 0 0 0 0 0 0 0 0 0 0
0 0 0 0 0 0 0 0 0 0 0 0 0 0 0 0 0 0 0 0 0 0 0 0 0 0 0 0 0 0 0 0 0 0 0 0 0 0
0 0 0 0 0 0 0 0 0 0 0 0 0 0 0 0 0 0 0 0 0 0 0 0 0 0 0 0 0 0 0 0 0 0 0 0 1 1
0 0 0 0 0 0 0 0 0 0 0 0 0 0 0 0 0 0 0 0 0 0 0 0 0 0 0 0 0 0 0 0 0 0 0 0 1 2
0 0 0 0 0 0 0 0 0 0 0 0 0 0 0 0 0 0 0 0 0 0 0 0 0 0 0 0 0 0 0 0 0 0 0 0 1 1
Wind_Speed
3 3 3 2 2 2 2 2 3 2 1 1 1 1 2 2 5 4 4 8 9 10 10 10 10 10 9 9 9 9 8 8 7 7 6 5 5 6
2 3 3 2 2 2 2 2 2 2 2 1 1 1 2 3 5 4 5 10 10 10 10 10 10 10 10 10 9 9 8 7 7 6 6 6 5 4
3 3 3 2 2 1 1 1 1 1 2 2 1 2 3 4 4 4 5 5 5 10 10 10 9 9 9 9 9 9 8 7 7 6 5 4 4 3
4 3 3 2 2 1 1 1 1 2 4 4 3 2 3 4 5 5 5 5 5 9 10 10 9 8 7 7 7 6 5 5 5 4 4 3 3 3
5 4 4 3 2 1 1 1 1 3 4 5 4 2 2 3 4 5 6 5 5 7 8 8 8 7 6 5 5 5 5 5 4 4 3 3 3 4
5 5 5 4 3 1 2 2 3 4 5 6 5 3 3 2 3 4 4 3 3 4 5 5 6 6 6 5 5 5 6 5 5 5 4 4 5 5
5 5 5 5 5 3 2 3 3 4 4 5 5 4 4 3 3 3 5 4 2 2 3 3 3 3 4 5 7 8 8 8 7 7 7 7 7 8
4 3 4 5 7 7 6 4 3 4 4 4 4 5 5 4 4 4 4 4 2 2 3 3 4 4 4 4 8 11 11 10 9 9 9 9 9 10
4 4 4 5 5 4 5 6 4 4 4 4 5 5 5 4 5 5 4 3 3 4 3 2 2 3 3 5 11 13 12 12 12 11 11 11 11 11
5 5 5 5 6 4 3 4 4 4 4 3 3 3 4 3 3 4 4 3 2 2 2 2 2 3 3 3 10 13 14 13 13 13 13 13 13 13
6 6 6 5 7 6 4 5 5 4 5 6 5 5 4 4 3 3 3 3 2 1 2 1 2 2 2 3 6 13 14 14 14 14 14 14 14 12
4 5 9 8 8 7 4 4 4 3 4 5 5 4 4 3 3 2 2 2 2 1 1 1 1 1 1 2 3 4 7 11 14 15 15 16 14 7
3 4 4 8 8 7 5 4 4 2 2 3 3 3 3 2 2 1 1 2 1 0 1 1 0 1 1 1 2 3 5 5 6 8 14 17 17 11
4 3 3 6 7 7 5 4 4 2 1 2 2 2 2 2 2 2 1 1 1 1 1 1 1 1 1 2 2 2 3 4 4 5 5 9 13 16
3 3 3 4 4 2 2 2 2 1 1 2 2 2 2 2 2 2 2 2 2 2 3 3 3 2 2 2 3 3 3 4 4 4 4 4 4 4
1 1 1 2 2 1 0 0 0 1 1 2 1 1 2 2 2 2 2 2 2 2 4 5 4 4 3 4 3 4 3 3 3 4 4 4 4 4
4 1 1 1 1 0 0 0 1 1 1 1 1 1 1 1 1 1 1 2 2 2 2 3 4 5 5 4 4 4 4 3 3 3 3 4 5 5
4 2 1 1 0 1 1 1 1 1 1 1 1 1 1 1 1 2 2 2 2 2 2 2 2 2 3 4 6 5 4 4 4 4 4 5 6 5
2 2 1 1 0 0 0 1 1 1 0 1 1 1 1 1 1 1 2 1 1 1 2 1 1 2 3 4 4 5 4 4 4 4 5 5 6 6
2 2 1 1 0 1 1 1 0 0 1 1 1 1 1 1 1 1 1 1 1 1 2 2 2 2 2 4 4 5 7 6 5 6 6 6 6 8
2 2 1 1 0 0 1 1 1 1 1 1 1 1 1 1 1 2 2 2 2 2 2 3 3 4 3 3 4 5 6 9 10 7 6 5 6 6
2 2 1 1 1 2 2 2 2 2 1 1 1 1 2 2 2 2 3 3 3 3 3 3 4 3 3 4 6 7 6 6 9 14 14 11 6 6
2 2 2 2 3 2 2 2 2 1 0 1 1 1 2 2 2 3 3 3 3 3 3 3 3 3 4 5 5 6 8 7 6 5 6 10 15 18
Wind_Direction
321 318 308 292 287 273 258 219 199 204 206 151 91 19 50 75 94 102 104 111 115 112 113 115 117 120 123 126 126 127 129 131 133 140 146 156 166 160
316 319 312 311 297 276 260 252 231 193 179 126 105 93 88 89 101 105 104 106 107 109 111 112 113 115 116 118 122 126 130 132 133 135 137 137 143 154
332 317 310 305 300 298 286 254 199 155 159 117 85 104 100 99 99 97 100 97 103 107 110 109 107 109 111 115 117 119 119 124 130 137 144 152 159 171
353 347 336 332 342 329 350 31 101 137 146 136 119 111 101 109 110 105 103 102 101 107 111 113 113 116 120 120 121 123 123 129 137 151 161 165 172 189
9 7 359 353 6 17 49 78 94 110 123 131 129 122 111 121 112 103 102 101 111 115 117 122 127 131 136 140 144 147 150 155 161 166 175 191 208 227
26 21 13 10 13 38 80 99 110 112 124 129 130 132 121 126 125 123 112 108 117 133 134 140 144 151 161 168 171 172 177 183 189 196 207 220 232 241
40 38 36 41 42 45 83 103 121 129 134 136 138 136 140 151 147 143 131 132 125 142 142 158 160 171 184 195 197 198 200 203 208 216 224 233 241 248
35 45 54 56 60 65 84 96 112 135 143 145 145 147 149 148 142 146 142 142 147 182 166 180 177 186 196 197 199 204 210 216 220 226 232 238 244 249
21 23 50 54 55 70 86 94 95 95 122 144 146 150 148 157 153 153 156 156 151 169 165 183 191 197 201 201 196 204 212 217 222 228 233 239 244 249
36 39 52 46 39 41 94 94 88 73 87 114 126 137 140 147 152 152 155 138 125 160 164 178 199 205 205 195 201 205 212 218 224 231 237 242 247 251
44 39 47 50 33 43 77 92 92 85 77 100 119 123 123 130 125 120 135 141 151 183 186 173 195 203 207 208 210 211 217 222 229 236 241 245 248 253
68 58 47 40 38 49 69 82 92 98 112 112 113 124 136 140 152 146 143 142 146 155 184 178 209 209 259 230 204 201 220 235 237 242 245 248 249 247
65 60 40 33 41 53 65 69 78 75 104 119 124 131 136 141 151 157 139 127 112 97 168 159 222 262 265 270 242 216 209 221 227 239 242 245 244 230
54 62 51 39 40 42 54 52 46 48 101 113 121 130 139 141 144 140 139 139 183 185 190 180 205 230 260 280 279 255 239 236 231 233 236 239 240 235
52 58 49 32 14 11 38 25 28 46 101 111 117 130 136 142 146 160 188 208 223 227 221 215 220 236 239 255 265 265 266 260 243 243 246 245 240 231
63 66 1 341 318 323 341 269 182 94 92 95 106 119 130 146 175 183 185 199 209 242 237 222 221 229 247 254 256 263 259 260 262 255 254 256 252 242
336 288 256 229 220 181 154 155 131 131 123 125 122 151 172 180 193 197 201 218 225 233 234 231 229 225 227 238 259 261 263 265 262 263 268 273 267 258
345 307 299 303 189 154 154 145 128 97 97 122 164 229 221 208 222 224 221 219 229 243 244 240 242 259 267 253 232 252 262 265 269 271 270 275 278 272
327 305 296 304 334 10 126 125 132 139 159 279 261 238 232 246 240 237 243 246 251 257 264 258 248 257 280 289 278 246 254 272 279 277 268 262 270 272
267 280 279 251 164 8 16 29 40 128 203 257 267 260 266 273 275 276 272 268 266 272 280 274 261 252 257 270 277 269 241 241 254 262 265 264 262 266
271 260 267 285 262 211 227 230 238 250 242 247 280 285 284 283 284 285 286 291 271 257 260 261 252 248 249 262 273 273 261 239 234 238 252 266 274 279
282 288 278 281 274 263 247 233 221 220 216 216 247 269 271 269 275 276 272 269 268 268 267 262 258 250 250 258 270 276 276 272 255 248 245 241 248 263
261 281 280 261 254 243 253 264 260 245 224 273 282 276 278 277 271 271 275 280 290 291 286 281 279 275 274 272 276 280 285 287 284 279 271 258 247 249